TimePDT,TemperatureF,Dew PointF,Humidity,Sea Level PressureIn,VisibilityMPH,Wind Direction,Wind SpeedMPH,Gust SpeedMPH,PrecipitationIn,Events,Conditions,WindDirDegrees,DateUTC
12:53 AM,46.0,43.0,89,30.08,10.0,East,5.8,-,N/A,,Overcast,80,2011-10-30 07:53:00
1:53 AM,48.0,44.1,86,30.06,6.0,Calm,Calm,-,0.02,Rain,Light Rain,0,2011-10-30 08:53:00
2:00 AM,48.2,44.6,87,30.05,2.0,Variable,3.5,-,0.03,Rain,Rain,0,2011-10-30 09:00:00
2:53 AM,51.1,50.0,96,30.05,2.0,SSE,5.8,-,0.16,Rain,Light Rain,150,2011-10-30 09:53:00
2:58 AM,51.8,50.0,94,30.04,1.8,SE,5.8,-,0.01,Rain,Light Rain,140,2011-10-30 09:58:00
3:16 AM,51.8,50.0,94,30.03,2.0,SE,6.9,-,0.05,Rain,Rain,140,2011-10-30 10:16:00
3:21 AM,51.8,50.0,94,30.03,2.0,SE,5.8,-,0.06,Rain,Light Rain,140,2011-10-30 10:21:00
3:32 AM,51.8,50.0,94,30.03,3.0,SSE,6.9,-,0.06,Rain,Light Rain,150,2011-10-30 10:32:00
3:42 AM,51.8,51.8,100,30.03,2.5,SE,6.9,-,0.07,Rain,Light Rain,140,2011-10-30 10:42:00
3:53 AM,52.0,51.1,97,30.03,3.0,Variable,3.5,-,0.08,Rain,Light Rain,0,2011-10-30 10:53:00
4:37 AM,53.6,53.6,100,30.01,4.0,South,10.4,19.6,0.01,,Overcast,180,2011-10-30 11:37:00
4:44 AM,53.6,53.6,100,30.01,5.0,South,10.4,18.4,0.01,,Overcast,170,2011-10-30 11:44:00
4:53 AM,54.0,53.1,97,30.01,5.0,South,9.2,18.4,0.01,,Overcast,180,2011-10-30 11:53:00
5:06 AM,53.6,53.6,100,30.00,1.8,South,6.9,20.7,0.01,Rain,Light Rain,170,2011-10-30 12:06:00
5:17 AM,53.6,53.6,100,30.00,2.5,South,8.1,19.6,0.02,Rain,Light Rain,180,2011-10-30 12:17:00
5:53 AM,55.0,55.0,100,29.99,2.5,South,10.4,20.7,0.05,Rain,Light Rain,180,2011-10-30 12:53:00
6:03 AM,55.4,55.4,100,29.99,3.0,South,9.2,21.9,0.01,Rain,Light Rain,190,2011-10-30 13:03:00
6:14 AM,55.4,53.6,94,29.99,2.0,South,9.2,17.3,0.01,Rain,Light Rain,190,2011-10-30 13:14:00
6:17 AM,55.4,53.6,94,29.99,1.8,South,8.1,17.3,0.01,Rain,Light Rain,180,2011-10-30 13:17:00
6:46 AM,55.4,55.4,100,29.99,1.0,South,9.2,17.3,0.03,Rain,Light Rain,190,2011-10-30 13:46:00
6:53 AM,55.0,55.0,100,30.00,1.0,SSW,8.1,-,0.05,Rain,Rain,210,2011-10-30 13:53:00
7:27 AM,55.4,55.4,100,29.99,1.5,SSW,5.8,-,0.12,Rain,Light Rain,200,2011-10-30 14:27:00
7:53 AM,55.9,55.0,97,29.99,1.5,South,6.9,-,0.16,Rain,Light Rain,170,2011-10-30 14:53:00
8:33 AM,55.4,55.4,100,30.00,1.0,SW,8.1,-,0.07,Rain,Light Rain,230,2011-10-30 15:33:00
8:53 AM,55.0,54.0,96,30.01,1.2,West,9.2,-,0.10,Rain,Light Rain,270,2011-10-30 15:53:00
9:00 AM,55.4,53.6,94,30.01,2.0,West,12.7,-,0.00,Rain,Light Rain,260,2011-10-30 16:00:00
9:03 AM,55.4,53.6,94,30.01,3.0,West,6.9,16.1,0.00,,Overcast,270,2011-10-30 16:03:00
9:11 AM,55.4,53.6,94,30.02,10.0,West,8.1,-,0.00,,Overcast,270,2011-10-30 16:11:00
9:18 AM,55.4,53.6,94,30.02,10.0,West,8.1,-,0.00,,Overcast,270,2011-10-30 16:18:00
9:39 AM,53.6,51.8,94,30.03,1.8,West,10.4,23.0,0.00,Rain,Light Rain,280,2011-10-30 16:39:00
9:48 AM,53.6,51.8,94,30.04,3.0,West,6.9,16.1,0.01,Rain,Light Rain,280,2011-10-30 16:48:00
9:49 AM,54.0,52.0,93,30.04,4.0,WNW,6.9,16.1,0.01,Rain,Light Rain,290,2011-10-30 16:49:00
10:53 AM,54.0,52.0,93,30.06,10.0,West,4.6,-,0.00,,Mostly Cloudy,280,2011-10-30 17:53:00
11:33 AM,53.6,51.8,94,30.07,2.0,West,8.1,-,0.00,Rain,Light Rain,270,2011-10-30 18:33:00
11:42 AM,53.6,51.8,94,30.07,3.0,West,5.8,-,0.00,,Overcast,270,2011-10-30 18:42:00
11:53 AM,54.0,52.0,93,30.08,10.0,West,3.5,-,0.00,,Overcast,260,2011-10-30 18:53:00
12:31 PM,55.4,53.6,94,30.08,10.0,WSW,5.8,-,N/A,,Overcast,240,2011-10-30 19:31:00
12:53 PM,55.0,53.1,93,30.08,10.0,SW,4.6,-,N/A,,Overcast,230,2011-10-30 19:53:00
1:08 PM,55.4,53.6,94,30.08,10.0,SW,5.8,-,N/A,,Overcast,220,2011-10-30 20:08:00
1:34 PM,55.4,53.6,94,30.07,2.0,SW,4.6,-,0.00,Rain,Light Rain,230,2011-10-30 20:34:00
1:37 PM,53.6,53.6,100,30.07,1.5,SW,4.6,-,0.00,Rain,Light Rain,230,2011-10-30 20:37:00
1:44 PM,53.6,53.6,100,30.07,1.0,SW,4.6,-,0.00,Rain,Light Rain,230,2011-10-30 20:44:00
1:50 PM,53.6,53.6,100,30.08,0.8,West,10.4,-,0.01,Rain,Light Rain,270,2011-10-30 20:50:00
1:53 PM,54.0,53.1,97,30.08,1.0,West,10.4,-,0.02,Rain,Light Rain,270,2011-10-30 20:53:00
1:58 PM,53.6,51.8,94,30.08,1.5,West,9.2,-,0.00,Rain,Light Rain,270,2011-10-30 20:58:00
2:05 PM,53.6,53.6,100,30.08,1.8,West,9.2,-,0.01,Rain,Light Rain,260,2011-10-30 21:05:00
2:12 PM,53.6,53.6,100,30.08,2.0,WNW,8.1,-,0.01,Rain,Light Rain,290,2011-10-30 21:12:00
2:36 PM,51.8,50.0,94,30.08,4.0,WNW,9.2,16.1,0.01,,Overcast,300,2011-10-30 21:36:00
2:50 PM,51.8,50.0,94,30.09,3.0,WNW,5.8,21.9,0.01,,Overcast,290,2011-10-30 21:50:00
2:53 PM,51.1,50.0,96,30.09,3.0,WNW,5.8,-,0.01,,Overcast,300,2011-10-30 21:53:00
2:58 PM,51.8,50.0,94,30.09,2.5,Variable,6.9,-,0.00,Rain,Light Rain,0,2011-10-30 21:58:00
3:05 PM,51.8,50.0,94,30.10,2.0,WNW,8.1,-,0.00,Rain,Light Rain,300,2011-10-30 22:05:00
3:13 PM,51.8,50.0,94,30.10,3.0,WNW,4.6,-,0.00,,Overcast,290,2011-10-30 22:13:00
3:20 PM,51.8,48.2,88,30.10,6.0,WNW,4.6,-,0.00,,Overcast,300,2011-10-30 22:20:00
3:53 PM,51.1,46.9,86,30.12,10.0,NW,4.6,-,0.00,,Overcast,310,2011-10-30 22:53:00
4:53 PM,51.1,46.0,83,30.12,10.0,Calm,Calm,-,N/A,,Mostly Cloudy,0,2011-10-30 23:53:00
5:53 PM,48.0,44.1,86,30.13,10.0,Calm,Calm,-,N/A,,Mostly Cloudy,0,2011-10-31 00:53:00
6:53 PM,46.9,45.0,93,30.15,10.0,Calm,Calm,-,N/A,,Mostly Cloudy,0,2011-10-31 01:53:00
7:28 PM,42.8,42.8,100,30.16,1.5,Calm,Calm,-,N/A,,Partly Cloudy,0,2011-10-31 02:28:00
7:35 PM,42.8,42.8,100,30.16,1.2,Calm,Calm,-,N/A,,Partly Cloudy,0,2011-10-31 02:35:00
7:40 PM,42.8,42.8,100,30.16,2.0,Calm,Calm,-,N/A,,Scattered Clouds,0,2011-10-31 02:40:00
7:46 PM,42.8,42.8,100,30.16,1.2,Calm,Calm,-,N/A,,Scattered Clouds,0,2011-10-31 02:46:00
7:53 PM,44.1,43.0,96,30.17,1.8,Calm,Calm,-,N/A,,Scattered Clouds,0,2011-10-31 02:53:00
8:02 PM,42.8,42.8,100,30.16,0.8,Calm,Calm,-,N/A,,Mostly Cloudy,0,2011-10-31 03:02:00
8:09 PM,42.8,42.8,100,30.16,1.0,Calm,Calm,-,N/A,,Scattered Clouds,0,2011-10-31 03:09:00
8:16 PM,42.8,42.8,100,30.17,0.2,Calm,Calm,-,N/A,Fog,Fog,0,2011-10-31 03:16:00
8:28 PM,42.8,42.8,100,30.17,0.5,Calm,Calm,-,N/A,Fog,Fog,0,2011-10-31 03:28:00
8:36 PM,42.8,41.0,93,30.17,0.5,Calm,Calm,-,N/A,Fog,Fog,0,2011-10-31 03:36:00
8:53 PM,42.1,41.0,96,30.18,0.5,Calm,Calm,-,N/A,Fog,Fog,0,2011-10-31 03:53:00
9:01 PM,42.8,41.0,93,30.18,0.5,Calm,Calm,-,N/A,Fog,Fog,0,2011-10-31 04:01:00
9:06 PM,41.0,41.0,100,30.18,1.0,Calm,Calm,-,N/A,,Mostly Cloudy,0,2011-10-31 04:06:00
9:28 PM,42.8,42.8,100,30.19,2.0,Calm,Calm,-,N/A,,Mostly Cloudy,0,2011-10-31 04:28:00
9:37 PM,42.8,42.8,100,30.19,6.0,Calm,Calm,-,0.00,Rain,Light Rain,0,2011-10-31 04:37:00
9:51 PM,42.8,42.8,100,30.20,6.0,Variable,3.5,-,0.00,Rain,Light Rain,0,2011-10-31 04:51:00
9:53 PM,43.0,43.0,100,30.20,5.0,Calm,Calm,-,0.01,Rain,Light Rain,0,2011-10-31 04:53:00
10:53 PM,42.1,42.1,100,30.22,9.0,Calm,Calm,-,0.02,,Mostly Cloudy,0,2011-10-31 05:53:00
11:53 PM,42.1,41.0,96,30.23,3.0,Calm,Calm,-,0.00,,Partly Cloudy,0,2011-10-31 06:53:00
11:58 PM,41.0,39.2,93,30.23,1.8,ESE,3.5,-,N/A,,Partly Cloudy,110,2011-10-31 06:58:00